Location: Aragnouet
(42.7874°N, 0.2165°E)
Time: 03:41:30
(UTC+00:00)

STARLINK-1226 - Pass Details

Date: 09 April 2020
Orbit: 378 x 381 km, 53.0° (Epoch: 02 June)

Event Time Altitude Azimuth Distance (km) Brightness Sun altitude
Rises 19:44:20 0° 310° (NW) 2,265 8.4 -12.9°
Reaches altitude 10° 19:46:29 10° 318° (NW) 1,408 6.8 -13.3°
Maximum altitude 19:49:27 38° 29° (NNE) 607 3.8 -13.8°
Enters shadow 19:50:46 25° 80° (E) 826 4.1 -14.0°
